Weather History for Lattakia, Syria

Change the Weather History Date:

Thursday, October 11, 2012

  Actual Average Record
Temperature  
Mean Temperature 71 °F -  
Max Temperature 78 °F - - ()
Min Temperature 64 °F - - ()
Cooling Degree Days 6    
Growing Degree Days 21 (Base 50)    
Moisture  
Dew Point 63 °F    
Average Humidity 79    
Maximum Humidity 89    
Minimum Humidity 63    
Precipitation  
Precipitation 0.28 in - - ()
Sea Level Pressure  
Sea Level Pressure 29.80 in    
Wind  
Wind Speed 8 mph ()    
Max Wind Speed 25 mph    
Max Gust Speed 40 mph    
Visibility 5.6 miles    
Events Rain , Thunderstorm    
T = Trace of Precipitation, MM = Missing Value Source: Averaged Metar Reports

Daily Weather History Graph

Daily Weather History Graph

Search for Another Location

Airport:

Trip Planner

Search our weather history database for the weather conditions in past years. The results will help you decide how hot, cold, wet, or windy it might be!

Date:

Astronomy

Oct. 11, 2012 Rise Set
Actual Time 6:39 AM EEST 6:05 PM EEST
Civil Twilight 6:13 AM EEST 6:31 PM EEST
Nautical Twilight 5:44 AM EEST 7:00 PM EEST
Astronomical Twilight 5:14 AM EEST 7:30 PM EEST
Moon 2:04 AM EEST (10/11) 3:22 PM EEST (10/11)
Length of Visible Light 12h 17m
Length of Day
11h 26m
Waning Crescent, 21% of the Moon is Illuminated
Oct 11
Waning Crescent
Oct 15
New
Oct 22
First Quarter
Oct 29
Full
Nov 7
Last Quarter

Hourly Weather History & Observations

Time (EEST) Temp. Dew Point Humidity Pressure Visibility Wind Dir Wind Speed Gust Speed Precip Events Conditions
12:00 AM 68.0 °F 60.8 °F 78% 29.83 in 6.2 mi East 4.6 mph - N/A   Scattered Clouds
1:00 AM 68.0 °F 59.0 °F 73% 29.83 in 6.2 mi NNE 4.6 mph - N/A   Scattered Clouds
2:00 AM 66.2 °F 60.8 °F 83% 29.80 in 6.2 mi East 5.8 mph - N/A   Scattered Clouds
3:00 AM 70 °F 65 °F 81% 29.77 in 9 mi NNE 2.2 mph - -   Partly Cloudy
3:00 AM 66.2 °F 60.8 °F 83% 29.80 in 6.2 mi ENE 3.5 mph - N/A   Scattered Clouds
4:00 AM 64.4 °F 60.8 °F 88% 29.77 in 6.2 mi ENE 6.9 mph - N/A   Scattered Clouds
5:00 AM 68.0 °F 60.8 °F 78% 29.77 in 6.2 mi East 6.9 mph - N/A   Scattered Clouds
6:00 AM 66.2 °F 60.8 °F 83% 29.74 in 6.2 mi East 3.5 mph - N/A   Scattered Clouds
7:00 AM 66.2 °F 57.2 °F 73% 29.74 in 6.2 mi ENE 4.6 mph - N/A   Scattered Clouds
8:00 AM 69.8 °F 57.2 °F 64% 29.74 in 6.2 mi East 4.6 mph - N/A   Mostly Cloudy
9:00 AM 67 °F 65 °F 89% 29.78 in 6 mi South 6.7 mph - - Rain Heavy Rain
9:00 AM - 60.8 °F N/A% 29.86 in 0.6 mi WSW 17.3 mph 40.3 mph N/A Rain , Thunderstorm Rain Showers
10:00 AM 64.4 °F 60.8 °F 88% 2.98 in 4.3 mi East 20.7 mph - N/A   Light Drizzle
11:00 AM 69.8 °F 62.6 °F 78% 29.86 in 5.0 mi South 18.4 mph - N/A   Mostly Cloudy
12:00 PM 72 °F 68 °F 84% 29.78 in 9 mi East 11.2 mph - - Thunderstorm Thunderstorm
12:00 PM 71.6 °F 64.4 °F 78% 29.83 in 6.2 mi South 9.2 mph - N/A   Mostly Cloudy
1:00 PM 73.4 °F 64.4 °F 73% 29.80 in 3.7 mi South 25.3 mph - N/A Rain Light Rain Showers
2:00 PM 75.2 °F 62.6 °F 65% 29.77 in 5.0 mi South 20.7 mph - N/A   Mostly Cloudy
3:00 PM 78 °F 68 °F 63% 29.75 in 9 mi South 24.6 mph - - Thunderstorm Light Thunderstorm
3:00 PM 75.2 °F 66.2 °F 73% 29.77 in 4.3 mi SW 18.4 mph - N/A Rain Light Rain Showers
4:00 PM 73.4 °F 66.2 °F 78% 29.77 in 2.5 mi SW 23.0 mph - N/A Rain Rain Showers
5:00 PM 73.4 °F 64.4 °F 73% 29.80 in 2.5 mi SSW 20.7 mph - N/A   Mostly Cloudy
6:00 PM 71.6 °F 64.4 °F 78% 29.80 in 4.3 mi SSW 20.7 mph - N/A   Mostly Cloudy
7:00 PM 71.6 °F 64.4 °F 78% 29.83 in 4.3 mi NNE 11.5 mph - N/A   Mostly Cloudy
8:00 PM 69.8 °F 62.6 °F 78% 29.86 in 4.3 mi ENE 9.2 mph - N/A   Mostly Cloudy
9:00 PM 70 °F 65 °F 81% 29.83 in 9 mi East 2.2 mph - -   Partly Cloudy
9:00 PM 68.0 °F 62.6 °F 83% 29.86 in 4.3 mi East 9.2 mph - N/A Rain Light Rain Showers
10:00 PM 66.2 °F 62.6 °F 88% 29.89 in 6.2 mi ENE 4.6 mph - N/A   Scattered Clouds
11:00 PM 66.2 °F 62.6 °F 88% 29.89 in 6.2 mi East 4.6 mph - N/A   Scattered Clouds